GFSGBSN_925_rhum_162.txt.gz
RH
92 93 90 88 90 85 84 86 91 93 96 96 97 96 96 99 100 100 99 99 100 100 99 98 96 86 70 81 78 72 62 59 59 63 68 75 85 75 82 75 72 85 68 62 59 61 59
90 84 88 85 85 88 87 88 89 93 94 93 97 96 96 96 99 100 100 99 100 98 100 99 94 86 88 88 63 63 63 64 62 68 68 70 68 74 87 76 74 70 71 70 64 65 62
84 82 83 85 85 84 85 86 92 92 91 91 95 98 96 98 100 100 98 98 99 100 100 99 96 93 94 80 62 58 65 65 65 73 76 71 70 79 77 79 65 74 88 75 66 68 68
90 79 84 90 90 90 83 82 92 92 94 94 96 96 95 99 99 98 99 99 99 99 99 100 93 96 92 54 58 59 62 63 67 66 79 80 78 87 88 75 77 83 86 94 60 63 63
94 84 81 86 87 84 84 89 91 91 92 95 98 97 97 98 97 98 97 86 74 74 74 93 91 91 88 62 62 58 59 68 71 78 77 84 80 82 78 93 99 91 96 97 81 59 63
96 94 89 85 82 90 90 92 93 93 92 92 93 97 93 96 98 100 89 68 67 70 68 80 80 84 63 63 54 57 68 72 85 86 80 86 90 91 94 96 96 94 97 85 86 54 66
96 96 96 87 89 87 89 91 92 93 91 93 96 96 95 94 98 100 84 67 60 72 73 72 69 71 60 51 54 67 73 73 87 87 86 85 98 98 87 86 84 99 100 97 77 58 66
94 96 93 83 85 85 85 85 87 94 94 95 97 94 97 95 96 87 88 78 72 71 89 66 65 65 54 58 69 64 76 77 80 88 81 94 96 76 76 80 88 91 99 93 72 58 62
85 90 96 89 83 82 84 86 88 96 96 92 96 97 96 99 90 78 73 72 74 76 92 79 62 60 60 59 72 73 79 80 91 92 80 98 78 74 73 86 93 90 92 85 82 62 68
81 85 96 95 86 82 84 87 92 94 96 93 98 98 97 99 86 77 73 73 70 76 90 67 64 66 63 69 86 60 72 74 88 91 87 95 80 92 97 100 98 98 75 86 87 93 93
84 84 86 88 82 83 85 90 95 89 93 97 95 99 98 100 86 80 76 67 70 71 63 53 69 60 60 74 60 58 73 81 95 82 90 85 89 93 100 96 97 96 74 97 98 98 98
86 82 83 81 79 82 84 91 90 89 96 97 97 98 98 95 89 77 71 68 71 79 57 70 68 72 70 76 70 58 74 72 75 85 80 87 83 94 95 83 79 92 98 100 100 99 97
94 87 86 75 79 83 83 88 87 92 96 98 96 98 98 100 83 79 69 74 86 73 50 62 71 69 72 74 64 58 71 88 90 97 86 78 84 81 83 92 83 89 100 97 97 98 93
99 93 86 82 72 81 83 84 87 89 97 98 98 98 94 91 83 78 73 78 72 58 69 52 65 70 78 63 65 58 65 80 70 80 97 89 87 88 85 88 75 90 90 98 96 96 80
100 100 92 86 84 78 82 83 86 89 97 99 98 97 92 82 85 80 84 92 66 76 55 58 66 74 74 66 68 64 69 70 56 76 74 92 90 58 75 65 52 58 88 80 86 80 94
86 100 100 88 86 81 76 79 83 88 98 100 98 98 88 85 82 80 90 77 77 62 52 60 78 67 64 58 74 73 61 50 52 51 51 63 93 60 53 50 51 54 58 83 94 96 92
77 100 100 94 91 80 76 77 81 87 97 99 99 96 91 87 80 91 94 86 73 52 50 65 71 70 65 64 60 61 58 48 52 55 56 60 65 69 56 56 57 56 72 78 85 100 97
69 88 99 99 94 85 77 78 78 89 95 99 96 98 95 86 97 96 98 82 54 51 53 58 61 66 69 64 65 60 58 51 54 54 66 56 62 81 62 52 48 52 55 67 90 96 98
78 60 82 100 100 89 78 76 77 88 94 97 99 97 94 90 99 97 87 66 56 57 62 65 68 65 61 60 69 61 56 47 54 55 59 56 69 88 70 58 51 54 51 44 75 91 92
93 85 74 97 100 96 81 79 79 81 89 97 96 98 99 95 88 98 85 64 64 59 57 59 59 59 60 65 62 66 58 49 56 57 56 58 72 78 89 70 64 73 58 49 59 90 92
86 88 91 70 100 98 90 78 81 79 87 95 98 92 81 97 92 96 77 58 57 60 62 60 59 62 61 69 60 63 56 54 51 58 57 59 78 69 68 67 67 68 62 56 50 58 65
94 97 99 90 92 96 96 86 80 81 97 94 96 91 82 88 81 97 86 78 66 57 63 64 67 54 57 73 60 62 58 59 62 58 62 62 75 71 79 58 54 59 56 52 53 47 61
94 99 98 94 87 96 99 94 80 80 99 95 83 79 64 64 73 86 80 75 59 53 45 45 59 60 54 53 50 56 59 61 62 61 65 65 73 81 83 66 60 54 50 51 44 41 43
97 89 99 87 88 98 99 97 85 82 91 83 82 70 69 67 64 60 47 63 57 51 42 44 48 52 46 46 49 51 57 60 70 74 65 67 66 82 88 64 68 38 31 38 44 36 38
97 96 75 87 100 89 98 97 90 84 77 88 84 74 80 73 61 53 50 45 44 50 49 49 50 53 54 50 59 46 46 51 54 68 69 64 62 74 79 75 54 26 27 35 40 37 27
89 99 88 76 100 100 100 97 94 88 78 81 84 85 84 75 64 43 44 49 59 63 63 58 58 54 50 64 58 45 42 34 32 53 54 56 58 68 71 65 56 32 27 27 31 40 34
91 94 97 78 95 100 100 100 99 95 88 82 86 86 77 80 70 50 52 52 53 60 65 67 64 60 55 73 61 55 44 33 33 40 61 76 76 80 78 77 63 42 30 32 29 33 37
96 93 98 91 87 97 100 99 97 96 94 90 88 84 72 89 79 50 44 52 54 59 59 62 60 68 76 70 66 56 50 38 39 36 58 66 82 84 78 74 71 31 25 24 30 36 42
95 94 91 98 94 98 100 100 100 98 90 90 85 84 82 84 78 68 58 55 51 47 65 72 54 70 67 68 73 60 47 49 40 43 42 50 60 63 66 62 44 28 31 29 38 38 40

GFSGBSN_925_rhum_165.txt.gz
RH
95 96 93 88 87 83 86 86 88 92 94 96 96 96 97 97 98 100 100 100 99 100 99 100 100 85 71 77 68 65 67 62 62 61 66 74 81 84 88 80 77 85 73 65 59 63 68
86 91 90 92 88 88 88 86 87 88 90 93 93 97 97 94 97 98 98 97 96 99 99 98 98 88 86 72 58 62 64 65 65 69 67 70 72 73 90 92 83 70 72 71 61 66 63
89 92 92 92 91 90 93 84 85 92 91 90 93 97 97 97 98 98 97 99 100 99 100 98 99 96 90 84 55 63 64 65 67 72 77 75 71 79 83 89 71 76 87 77 71 67 74
95 90 89 93 92 90 93 84 84 92 89 93 90 96 96 99 99 97 98 100 100 99 100 99 95 94 91 53 58 60 61 69 68 70 78 82 82 83 90 77 77 83 88 88 62 62 68
91 97 95 96 96 91 92 91 92 90 89 91 91 96 97 95 96 98 98 91 84 72 85 94 92 89 90 61 66 57 60 65 68 77 78 84 81 80 82 95 96 93 95 92 82 62 62
83 97 96 98 97 88 91 90 90 91 93 92 93 94 95 96 96 99 92 73 72 71 79 88 87 85 62 59 55 57 67 72 77 87 80 92 94 96 98 99 96 88 99 88 88 63 67
84 94 96 95 92 90 87 89 91 92 91 91 95 97 95 98 97 99 90 69 55 66 78 69 67 73 65 54 56 68 75 78 86 93 91 84 97 92 80 83 80 77 97 93 84 65 78
82 81 95 96 80 87 85 84 86 87 93 96 92 96 96 98 99 98 88 77 68 70 80 65 70 71 61 58 68 63 76 76 82 88 75 93 97 76 77 85 92 94 96 91 71 69 71
85 85 84 85 87 81 81 83 86 88 93 94 96 96 98 97 98 87 77 73 75 78 87 72 67 64 59 60 70 70 78 78 90 93 81 92 73 76 81 88 98 97 94 84 84 68 65
88 85 86 86 86 79 82 82 85 92 96 95 96 97 97 99 86 84 75 75 72 76 84 61 61 63 66 67 81 64 74 71 87 95 87 94 72 89 91 98 99 98 71 82 81 92 94
100 93 84 82 86 79 83 83 86 91 91 94 98 98 97 98 95 85 78 68 67 64 54 48 66 61 63 73 65 63 77 80 90 88 93 82 85 89 96 97 89 97 73 95 96 98 98
100 95 95 83 84 81 78 82 87 90 89 94 97 97 98 98 92 81 73 67 70 74 46 64 68 74 72 79 78 66 79 76 78 89 90 91 80 89 82 83 81 76 89 97 100 98 96
94 99 98 96 82 81 76 83 88 86 87 93 98 97 99 98 87 80 70 72 79 72 47 59 68 73 72 76 70 65 77 95 90 96 86 80 87 78 81 89 77 86 99 97 97 97 90
86 92 100 98 96 84 77 81 87 85 86 91 98 99 99 96 89 79 73 70 60 46 68 48 65 70 77 67 69 60 66 80 71 79 97 89 84 85 85 91 76 85 92 98 96 96 93
74 84 85 100 99 93 78 80 82 84 91 91 98 99 96 86 89 82 80 89 58 56 56 58 62 77 73 68 71 66 73 74 66 80 81 89 91 62 85 76 68 60 92 75 99 83 97
81 65 68 82 100 97 87 74 80 82 85 89 98 99 93 86 85 80 90 81 59 62 55 60 69 68 75 60 72 74 66 55 54 64 58 68 93 65 58 58 62 59 58 94 96 97 96
87 84 83 70 78 100 96 84 81 81 85 91 99 97 93 89 78 92 97 89 69 65 51 66 73 74 72 66 70 65 62 50 53 54 60 65 81 72 55 57 62 62 70 78 89 98 97
82 95 73 65 71 98 98 96 80 83 93 92 100 99 96 86 97 97 100 82 67 54 56 59 64 70 71 63 70 66 66 54 51 54 66 57 88 91 68 52 52 54 60 66 98 91 97
70 84 93 79 61 67 93 98 81 84 93 88 92 96 99 93 97 98 92 82 68 58 63 65 70 70 67 70 73 68 60 48 58 56 62 56 85 96 70 55 50 57 56 54 76 91 93
80 81 90 89 83 71 89 98 88 87 90 86 95 95 98 99 87 84 86 82 71 60 59 62 64 65 70 72 68 70 63 51 55 61 56 60 76 94 96 78 66 73 66 59 62 92 77
74 69 70 85 86 67 72 100 91 98 90 87 98 95 73 95 94 83 88 64 68 59 64 65 62 70 71 73 66 75 62 56 49 61 64 65 83 77 77 72 73 73 74 69 62 60 77
92 98 89 98 77 80 69 98 98 99 90 90 98 97 90 94 84 85 85 83 68 57 68 70 73 57 73 75 65 60 57 60 62 59 65 66 80 73 83 68 58 68 60 62 61 54 51
91 88 82 96 98 90 76 98 100 100 99 93 88 90 85 84 98 93 94 85 72 60 50 52 64 65 68 66 60 57 56 58 58 63 67 71 78 84 88 71 67 52 39 51 49 46 47
90 91 92 95 94 98 90 100 100 98 95 78 74 80 75 73 85 87 71 71 69 61 46 45 54 57 46 47 48 51 59 64 67 74 73 72 71 84 91 70 72 38 39 40 46 46 38
94 90 91 93 85 94 100 99 99 94 97 84 82 79 77 76 65 56 54 56 52 53 54 49 51 51 57 52 57 46 42 48 57 68 80 75 68 79 84 84 60 28 27 35 44 44 29
95 92 94 94 97 84 96 96 91 99 100 88 86 76 85 76 70 47 56 53 60 64 60 58 59 56 55 66 57 41 41 32 30 55 64 69 66 73 77 75 67 35 30 28 32 44 37
92 94 92 97 90 92 99 99 99 98 96 94 81 86 81 81 68 52 54 57 58 62 65 68 65 60 59 73 59 56 47 34 39 36 70 79 80 86 85 84 67 46 38 32 34 37 40
83 90 93 92 97 99 99 100 95 96 94 99 84 74 82 90 79 56 46 57 60 62 63 66 62 68 78 69 66 63 52 42 42 36 56 66 85 88 84 81 73 38 24 22 27 36 43
78 79 89 94 94 100 82 96 100 100 98 100 91 85 83 82 79 74 63 58 55 46 65 74 53 69 66 68 76 66 56 54 44 46 45 51 57 62 69 64 45 34 25 27 37 37 37

GFSGBSN_925_rhum_168.txt.gz
RH
96 95 92 94 93 90 90 86 86 89 93 96 96 96 98 98 96 99 99 98 97 98 99 100 99 93 68 64 57 63 76 64 65 63 67 73 77 86 91 83 82 88 79 72 67 68 67
91 94 95 95 94 90 85 86 90 88 91 92 92 94 98 96 98 100 99 96 99 99 99 100 98 93 80 54 60 64 66 65 66 67 71 70 70 75 88 85 86 74 77 75 67 63 62
94 87 95 96 95 95 89 86 89 88 93 93 94 94 97 98 100 100 99 99 100 99 99 99 99 98 87 62 55 62 64 64 69 73 79 77 74 79 80 87 76 80 94 80 73 72 77
86 93 89 96 96 93 93 94 85 88 92 92 93 94 98 98 97 96 98 100 99 99 98 99 98 94 82 55 59 58 61 63 69 72 76 83 84 87 89 78 78 88 85 89 61 63 69
82 88 92 93 95 95 89 91 93 93 93 92 92 91 96 98 98 97 99 96 91 83 93 95 93 85 78 61 63 56 62 66 68 77 81 84 83 84 74 91 88 78 95 88 79 63 63
85 77 90 96 95 95 85 90 91 92 92 93 91 92 94 95 98 99 100 79 78 79 90 92 89 77 58 56 56 61 66 70 75 84 81 87 89 92 80 91 92 89 98 89 96 68 63
89 91 81 92 94 89 89 88 87 89 90 91 92 96 94 96 98 99 94 72 54 58 81 66 62 69 65 56 59 69 74 77 83 88 87 85 98 90 84 86 76 83 92 88 73 58 74
93 90 88 87 89 81 88 81 81 83 88 90 96 95 95 99 98 100 94 80 70 74 82 65 72 74 64 59 68 66 77 77 80 89 77 91 94 78 77 83 84 98 97 93 73 64 74
97 97 96 93 95 82 73 83 83 81 86 88 90 95 98 97 100 86 84 75 75 79 84 66 69 68 60 62 70 68 79 78 86 87 90 92 76 76 83 85 97 94 93 81 84 73 69
99 96 98 92 90 88 77 77 80 84 86 90 90 94 99 97 85 86 76 78 72 76 82 57 62 62 68 66 76 64 74 69 87 92 94 92 77 85 92 92 90 97 73 77 87 96 96
96 96 95 96 94 88 85 76 79 83 87 87 89 94 93 98 98 87 81 70 69 63 54 45 65 63 69 73 66 69 78 79 88 84 88 77 80 89 92 84 90 97 73 88 93 98 98
97 96 99 99 97 94 84 82 76 85 87 87 87 94 94 96 97 84 73 67 69 72 55 57 68 75 77 81 78 76 81 79 78 94 93 89 79 87 84 83 83 78 89 84 99 98 98
90 92 85 90 100 100 94 87 78 83 85 85 86 92 92 95 92 83 70 69 77 70 49 54 68 78 73 74 75 76 82 98 88 90 88 79 82 83 80 85 79 87 100 96 93 98 89
95 86 83 81 89 100 98 92 82 83 85 84 86 93 92 96 95 83 73 67 66 43 60 46 67 72 77 69 72 65 70 81 76 77 93 88 87 83 82 87 80 86 92 98 96 98 78
96 95 86 69 68 82 100 98 86 82 84 86 85 92 95 90 96 88 80 89 59 46 50 62 63 76 73 69 72 68 74 76 68 82 83 90 92 61 86 78 78 78 99 74 99 94 97
95 95 93 82 74 69 70 100 96 87 84 86 88 93 96 85 92 85 90 82 55 54 56 57 51 65 74 62 73 75 70 61 61 74 60 69 96 66 60 66 71 79 64 96 97 96 95
90 96 94 92 71 71 72 77 100 93 86 89 90 91 91 89 87 93 98 93 68 61 56 63 67 69 75 67 71 69 66 55 52 57 66 65 94 71 61 64 64 71 84 94 100 99 97
87 88 92 91 80 68 71 70 78 99 90 92 95 98 99 90 96 94 94 90 66 65 64 60 64 71 74 70 71 73 71 58 50 56 68 65 84 94 78 59 55 57 63 85 98 93 91
98 97 96 96 92 88 77 85 68 100 94 92 96 96 100 89 93 87 84 95 78 62 65 68 72 71 68 75 75 74 63 50 53 62 63 61 86 96 72 55 52 60 57 63 87 94 91
91 98 96 95 95 91 85 80 90 88 93 82 96 99 99 98 83 86 92 84 79 67 59 64 63 68 75 79 74 74 68 54 55 61 58 60 81 89 91 78 73 83 73 65 72 94 88
95 92 95 96 97 97 93 92 98 86 99 83 98 93 70 92 95 76 87 81 85 67 68 68 67 72 76 82 74 80 70 63 51 55 70 72 87 84 82 81 81 83 81 77 80 67 81
95 90 90 94 94 78 79 82 100 69 100 92 97 98 89 90 80 79 76 90 76 63 75 75 78 64 75 74 64 58 60 60 61 56 68 71 86 78 84 71 68 72 65 69 68 64 60
94 94 91 89 95 92 79 81 94 77 95 97 99 92 82 92 91 83 80 77 83 58 55 59 68 70 73 70 65 64 60 58 56 63 68 72 82 86 90 74 71 52 38 44 51 50 50
94 95 94 92 96 91 90 100 85 89 92 90 91 85 86 97 90 80 85 78 82 74 48 53 62 64 51 48 48 52 59 66 69 72 72 77 76 86 94 76 70 37 44 41 46 45 46
90 95 95 90 96 99 99 87 99 85 99 96 90 85 81 85 87 84 74 88 78 64 60 52 54 53 54 53 57 49 41 51 61 67 80 80 76 86 90 90 66 37 29 31 42 44 31
76 79 90 92 94 96 98 99 85 98 93 97 94 87 85 77 77 57 66 58 69 73 65 60 62 58 56 65 58 46 44 32 31 62 78 79 74 80 84 84 75 38 32 30 34 44 36
78 78 78 82 89 95 98 94 90 100 100 95 94 91 80 81 70 53 62 65 60 63 70 71 70 63 56 70 58 58 52 37 43 34 76 81 84 93 92 93 78 52 43 32 37 36 39
79 80 79 79 83 87 90 98 96 97 80 90 94 91 74 85 79 62 49 59 65 66 68 72 65 69 77 65 61 63 61 47 42 38 62 70 88 92 89 89 77 40 25 22 26 33 40
75 79 80 78 80 84 89 93 100 99 88 98 98 90 89 79 77 75 67 60 55 49 68 77 54 70 69 67 73 64 57 62 47 46 47 50 54 59 71 66 48 43 29 28 35 39 36

GFSGBSN_925_rhum_171.txt.gz
RH
86 89 88 91 95 94 91 84 88 87 89 91 94 94 93 97 98 100 100 98 96 100 98 99 98 88 68 52 52 65 86 64 64 64 69 72 77 86 91 86 83 87 76 70 68 69 68
84 81 82 85 90 87 88 89 86 85 90 93 92 94 93 98 98 100 99 98 100 100 100 99 99 92 79 50 61 64 69 66 66 69 74 72 73 75 88 78 85 75 80 76 69 66 63
82 90 89 91 92 86 88 87 85 84 89 90 92 93 93 93 98 99 98 99 98 98 99 99 98 96 89 49 56 61 67 66 71 73 80 80 78 81 79 90 78 82 93 72 68 68 74
76 82 84 89 90 92 88 82 84 87 88 90 90 91 92 92 98 99 98 98 100 99 99 99 98 95 75 55 57 60 62 65 68 70 75 79 82 86 84 75 70 80 83 92 64 68 66
82 73 83 87 85 89 87 86 83 84 86 88 87 88 92 97 98 99 100 96 94 77 86 97 94 85 64 60 60 60 63 66 70 78 80 83 84 82 76 83 93 80 94 85 68 61 63
90 89 77 81 89 96 86 86 87 85 86 85 86 91 91 95 99 99 99 73 82 82 93 97 90 73 49 56 56 61 67 71 75 82 83 84 87 86 82 89 96 89 88 77 80 65 67
93 93 95 85 84 90 86 89 87 85 83 86 86 90 90 94 99 99 81 65 54 56 84 61 59 62 62 58 60 69 74 74 80 78 82 86 93 96 82 82 76 80 94 95 75 63 69
99 96 95 96 94 90 84 78 82 82 82 83 86 91 93 95 98 100 86 77 73 78 87 65 76 74 66 62 68 67 78 75 80 87 81 87 97 74 76 82 85 87 97 94 73 63 66
94 97 99 98 98 94 88 70 80 80 83 86 88 91 94 98 99 85 82 78 77 81 85 66 67 69 62 64 69 67 78 78 84 86 90 89 73 76 83 90 92 80 96 90 85 72 66
86 90 96 99 98 97 93 86 69 79 82 87 89 91 95 96 83 88 79 79 71 75 83 59 60 62 69 66 74 67 73 69 88 90 90 87 76 81 88 93 83 97 73 79 83 94 94
95 91 90 96 100 93 94 91 83 72 79 86 88 90 94 95 94 88 82 70 69 63 46 42 66 64 71 75 69 73 79 79 87 81 86 74 78 86 94 80 85 88 81 93 94 98 99
97 97 94 93 92 95 99 93 90 78 80 86 86 87 94 91 97 86 75 69 67 69 39 49 69 76 80 81 77 83 83 81 79 96 83 85 77 87 76 80 82 77 87 88 96 97 96
89 96 94 92 82 83 91 100 95 87 80 83 83 84 91 93 92 87 72 66 74 65 42 44 66 81 74 73 76 83 87 96 89 84 85 77 77 84 83 90 76 94 92 95 92 96 86
90 94 97 90 92 71 74 88 100 95 83 84 83 82 86 93 97 85 73 60 59 41 50 50 66 74 75 69 72 70 75 83 81 76 92 92 89 76 80 85 76 88 91 98 96 93 75
76 96 95 91 89 88 67 67 76 100 88 86 87 85 84 94 94 87 79 88 61 46 41 66 68 74 71 70 72 73 77 77 69 83 80 90 90 62 83 78 77 85 98 79 98 94 94
71 89 94 94 91 88 74 75 60 82 100 88 92 85 90 80 98 89 90 81 60 47 55 55 40 56 67 64 72 76 72 64 67 76 63 69 92 67 62 69 74 76 71 97 93 95 93
67 70 79 94 92 85 79 71 75 72 100 94 88 96 80 88 96 93 95 95 73 59 58 61 61 60 72 66 72 71 65 58 56 62 73 66 90 73 67 69 67 75 89 97 97 99 96
81 85 91 96 90 88 86 85 81 74 98 100 96 99 99 95 97 90 88 90 66 65 68 64 60 66 71 75 75 78 75 64 51 64 72 69 83 90 77 57 57 60 73 80 97 92 95
88 92 92 94 96 94 87 85 86 90 95 97 98 98 100 87 95 91 85 88 83 73 71 74 74 71 69 73 72 76 68 53 54 66 66 65 84 96 61 54 54 63 60 67 79 98 86
91 96 94 92 95 93 88 88 92 87 99 94 98 100 100 98 83 74 89 95 88 78 62 66 64 70 75 79 78 73 73 57 57 64 58 60 83 84 79 62 72 80 77 72 74 94 76
93 95 94 93 95 94 96 94 81 77 92 100 99 99 91 98 96 82 80 78 88 68 75 71 71 74 79 84 81 85 77 71 55 55 70 73 94 89 85 81 81 83 82 78 88 74 78
89 95 95 94 92 94 85 84 91 92 78 98 92 99 97 94 81 87 76 94 90 75 79 78 78 75 81 73 64 65 65 61 63 57 75 77 90 83 82 70 77 78 68 69 69 66 64
90 96 94 95 94 95 96 95 89 87 95 96 84 93 99 90 86 94 87 74 90 65 64 66 70 69 87 73 65 59 55 58 56 62 70 72 84 88 87 77 74 58 48 45 46 48 53
80 84 87 92 94 93 95 95 95 99 88 100 89 92 100 100 96 93 74 70 76 78 55 62 71 73 58 53 52 54 60 67 70 74 70 78 79 87 95 78 64 37 45 45 44 44 42
75 78 80 79 84 87 91 92 95 98 98 100 88 88 98 100 95 88 82 73 69 75 81 54 64 59 57 49 56 48 40 46 67 69 78 78 81 90 94 94 67 38 31 35 34 40 34
78 76 77 79 79 82 83 85 84 88 100 98 91 81 90 97 98 81 81 85 94 93 80 64 64 62 56 65 57 49 46 32 38 74 87 82 78 83 90 91 79 40 33 31 35 44 36
75 75 77 76 79 79 80 81 83 87 97 94 99 85 82 96 90 74 91 81 66 72 81 80 75 66 57 69 59 58 52 40 41 42 88 92 90 94 92 84 82 56 50 36 36 36 36
75 76 73 76 77 78 77 79 80 88 91 95 98 92 80 94 92 77 56 61 65 69 78 79 69 73 79 68 63 64 58 48 41 40 70 75 90 94 93 96 78 44 30 30 32 32 37
76 76 75 74 78 78 77 76 78 86 97 100 97 98 90 92 90 78 63 57 57 52 72 82 57 77 72 71 75 67 58 60 48 47 51 48 56 61 69 63 47 43 36 29 35 40 38